Wind_Speed
2 4 2 1 4 6 6 5 6 5 7 6 11 10 10 8 7 7 7 7 7 7 13 14 12 11 8 7 8 8 8 9 12 16 18 20 21 18 17 16 14 15 15 8
0 4 5 3 5 6 4 3 7 2 7 5 4 8 7 9 9 7 7 7 7 11 17 16 16 13 9 11 10 10 11 12 14 17 19 22 22 19 17 12 12 10 10 12
3 3 5 6 8 8 5 4 6 6 8 6 5 9 12 9 9 9 8 8 8 12 20 21 15 12 12 11 13 13 13 15 16 17 20 23 20 17 15 14 17 15 17 8
2 3 2 6 2 4 5 4 6 3 5 10 5 3 6 6 9 9 8 7 9 16 18 17 12 12 12 14 15 15 16 18 18 17 21 24 20 18 18 18 17 13 9 2
4 3 5 5 5 7 8 7 9 7 4 5 4 4 5 8 7 8 8 15 16 15 14 12 11 10 13 16 16 14 18 20 19 17 22 23 19 18 18 16 13 6 4 3
3 4 6 6 3 3 3 5 8 8 8 8 7 3 9 9 8 11 13 10 9 8 9 7 6 9 9 10 15 19 20 21 19 17 22 20 17 16 12 7 7 8 6 2
2 3 8 7 2 2 5 7 6 9 9 9 7 7 2 4 5 10 7 10 9 9 6 3 3 4 10 14 17 17 18 21 20 19 20 17 16 14 14 10 8 7 4 2
3 2 8 6 3 7 6 2 6 8 8 14 6 7 5 6 7 12 15 13 9 6 1 2 5 9 12 14 14 18 20 22 21 23 20 15 15 12 8 7 8 6 4 4
8 6 5 6 5 4 2 3 5 7 7 11 8 7 8 7 9 13 14 12 7 3 1 5 8 11 12 13 18 21 22 20 23 23 15 13 13 9 7 7 7 6 8 8
2 4 7 8 6 6 6 7 4 6 7 10 7 7 6 7 7 11 9 7 3 2 5 9 11 12 11 17 19 21 18 17 21 15 10 10 10 9 8 7 8 11 11 10
5 8 6 8 7 9 6 5 5 4 6 8 8 8 12 10 10 10 7 5 3 3 6 11 12 13 16 19 18 17 16 17 19 14 10 8 8 8 7 6 9 13 12 10
6 9 5 7 5 1 6 8 7 7 6 5 8 11 11 9 10 8 8 5 3 5 8 12 13 17 18 13 11 13 16 15 18 17 16 12 11 11 8 7 7 9 11 12
6 2 6 6 5 3 5 5 6 6 8 10 13 18 15 11 9 8 6 5 6 7 10 13 16 18 16 10 12 14 17 17 18 16 15 13 14 16 11 9 9 8 10 11
5 3 5 4 5 2 3 9 16 18 19 20 21 17 11 6 7 8 8 8 6 8 11 14 15 17 12 11 14 14 15 15 15 16 11 12 15 18 16 16 12 11 11 10
5 7 2 2 6 7 13 17 14 11 15 13 16 10 10 10 9 9 9 7 7 10 13 13 13 13 11 15 15 15 15 16 16 14 14 18 13 15 16 17 16 14 13 12
5 5 7 9 10 10 13 12 16 11 6 5 7 10 12 10 8 10 9 7 8 12 13 12 12 11 15 15 17 17 16 15 14 13 12 8 8 12 15 17 18 17 17 14
3 5 7 10 11 13 13 12 10 8 9 7 9 10 9 9 10 12 9 9 10 11 12 14 15 14 15 15 14 19 19 17 17 16 16 16 16 16 16 15 17 20 19 15
15 15 14 12 11 11 7 7 7 6 7 8 10 8 9 11 14 12 14 12 13 14 14 14 13 10 11 14 17 20 18 16 20 21 21 21 19 20 20 18 17 18 20 17
21 16 16 14 11 7 4 3 4 5 5 6 8 11 14 15 14 16 14 14 16 16 17 13 11 12 13 16 18 20 19 21 23 22 22 23 21 20 20 21 20 19 20 22
9 10 10 6 5 5 3 4 6 8 8 8 10 11 13 16 13 12 11 15 18 18 14 14 13 17 19 22 19 19 20 21 22 22 20 21 21 21 20 21 21 22 22 23
7 6 5 4 3 3 4 5 7 9 8 8 9 13 13 16 16 13 11 12 23 13 12 14 16 18 18 20 19 20 22 20 22 21 20 21 23 23 25 27 29 29 28 27
3 1 1 2 5 7 6 7 7 8 9 10 11 13 15 18 18 18 17 20 26 17 12 14 15 16 18 20 21 22 20 19 20 21 21 22 23 26 27 28 28 29 30 31
2 3 3 3 5 7 9 9 9 9 11 13 15 17 18 20 21 15 14 19 16 16 16 17 20 18 17 20 21 19 15 15 17 17 19 21 22 23 24 25 26 27 28 30
3 1 4 6 8 12 14 16 16 17 18 18 18 19 17 21 27 22 23 24 23 24 24 22 20 15 14 15 15 20 16 17 12 14 16 17 18 19 21 22 25 27 27 28
9 10 12 13 15 14 17 19 19 20 22 22 23 23 24 24 20 29 25 26 27 27 25 19 16 13 10 8 9 13 15 15 15 15 15 16 18 21 23 26 27 26 27 27
13 14 14 12 12 13 14 15 15 17 19 21 21 20 23 27 28 28 28 28 26 26 20 12 6 6 9 13 14 13 12 12 12 13 14 16 19 21 23 26 26 26 27 28
9 13 12 12 15 17 20 20 19 19 21 22 24 25 25 25 25 28 29 25 23 16 5 2 4 9 13 12 11 11 11 11 12 14 16 19 22 26 28 29 30 28 28 27
Wind_Direction
65 18 334 259 187 177 187 182 175 245 210 232 204 191 173 161 158 168 185 187 182 171 173 186 197 210 228 259 274 289 298 319 336 340 340 338 332 324 315 310 300 307 309 307
125 3 5 286 259 215 213 203 257 276 275 207 146 122 162 176 178 188 196 202 185 186 197 202 212 221 243 264 281 287 293 314 330 332 332 333 328 324 311 314 317 320 326 320
262 359 340 336 224 200 196 191 160 197 236 156 176 187 185 185 191 200 201 194 183 197 205 212 219 233 255 280 292 287 293 308 313 318 325 325 321 317 315 307 316 301 328 313
186 22 8 240 292 224 208 217 204 225 210 194 188 132 176 200 194 206 206 198 200 212 219 220 239 244 271 281 289 286 290 297 306 310 318 319 315 311 309 302 302 287 286 249
142 192 294 306 200 170 177 259 192 203 175 152 93 65 281 210 200 201 203 210 214 227 226 231 251 259 277 287 293 288 292 299 302 304 315 319 313 312 310 295 287 251 219 261
92 141 218 239 249 177 118 290 193 166 175 158 129 154 241 187 183 204 209 209 213 211 211 227 241 279 289 299 300 292 293 305 300 302 311 310 307 303 307 289 248 201 193 236
125 236 289 242 199 167 103 244 163 176 179 156 187 199 187 156 141 187 183 161 158 163 173 241 259 275 295 304 304 314 313 307 297 296 305 301 300 297 289 272 208 196 201 249
102 66 281 169 82 161 216 253 186 191 188 193 188 149 139 119 121 132 135 139 144 134 113 206 253 295 304 308 314 313 309 304 301 302 298 294 295 294 277 218 192 195 238 267
184 216 230 235 229 256 176 207 215 197 198 198 169 179 166 153 150 143 143 134 129 120 261 286 298 306 301 308 315 314 312 308 311 308 281 287 291 277 232 201 204 241 252 258
82 255 239 237 257 235 215 229 216 224 196 173 176 146 109 100 110 113 137 131 148 248 300 309 314 305 291 313 315 315 310 315 323 311 272 281 288 260 229 215 251 257 253 251
262 280 284 266 235 251 247 221 223 203 187 166 128 133 141 141 131 150 148 173 224 296 308 306 310 307 309 315 314 316 308 315 324 311 266 276 268 219 218 275 284 273 265 261
231 239 197 248 270 209 215 227 200 162 124 100 125 128 122 109 130 170 186 201 259 292 300 305 312 312 317 319 319 325 320 310 315 309 290 248 241 230 242 289 288 276 269 265
240 228 208 259 284 246 240 207 165 134 121 119 121 122 116 105 198 200 200 230 261 286 298 310 314 316 326 322 327 322 316 310 314 305 294 247 237 231 241 270 274 272 278 265
242 157 280 216 251 220 155 108 107 100 100 102 102 101 101 187 206 211 224 245 267 287 304 313 315 320 326 323 320 317 310 298 302 306 294 283 250 238 247 265 256 275 278 265
264 215 250 34 70 74 99 104 86 80 91 89 113 120 199 213 220 233 242 262 272 294 304 314 321 325 334 330 317 313 309 301 301 295 295 295 268 242 251 270 256 266 271 269
39 52 62 84 88 85 94 90 94 101 112 126 183 210 219 224 233 243 263 266 270 295 316 312 306 316 315 310 311 309 305 301 291 280 283 270 246 258 264 275 262 261 267 275
105 86 85 88 96 91 91 97 113 161 206 222 234 238 236 232 246 264 273 278 279 293 299 297 299 306 310 306 310 313 302 294 291 268 259 253 268 268 269 268 275 264 264 274
70 69 72 86 91 92 96 132 172 231 251 262 258 253 239 240 254 284 294 292 276 275 291 306 299 292 313 321 322 316 304 293 299 291 263 252 264 270 264 262 264 268 266 262
79 82 83 89 105 134 178 221 245 252 272 295 290 270 267 268 282 291 294 286 275 279 295 311 290 281 300 309 310 311 304 297 298 292 276 251 262 262 259 259 267 272 267 257
93 105 109 99 88 62 13 327 312 308 307 292 279 278 286 288 301 299 292 278 277 283 298 305 297 290 290 301 303 301 305 301 293 293 287 259 258 264 263 260 265 270 270 262
84 80 75 72 31 354 338 323 311 301 311 301 287 281 290 306 305 297 276 281 297 301 292 300 304 306 303 305 307 299 299 290 285 294 284 269 259 264 269 270 266 264 271 268
125 72 31 335 336 328 339 325 316 306 302 305 305 303 302 300 304 302 286 269 294 303 288 301 306 303 304 308 303 298 298 296 290 293 292 276 267 266 267 273 272 272 272 267
267 294 304 283 288 308 329 349 352 336 326 319 313 311 307 306 305 290 291 305 294 291 285 293 306 302 302 304 301 297 292 300 301 299 296 295 290 283 279 279 279 278 275 270
209 332 2 1 3 13 4 349 343 339 335 325 316 312 308 312 311 309 306 303 298 292 286 290 293 288 299 303 310 299 286 287 298 308 311 312 311 308 299 294 290 289 286 282
38 33 34 31 34 17 0 350 341 341 337 331 328 325 323 324 304 304 301 301 304 300 293 289 287 279 276 283 306 308 309 319 315 313 317 319 314 309 304 301 300 292 285 281
53 46 41 36 22 8 359 352 343 336 332 324 318 316 314 318 318 313 311 309 306 302 282 286 226 281 318 322 319 321 323 329 338 344 344 344 341 335 316 299 302 296 290 286
43 30 18 13 12 3 351 341 333 327 326 320 313 317 315 311 307 309 304 304 304 293 177 189 330 335 331 332 335 336 337 342 348 349 349 349 347 346 342 334 325 300 287 287
Height
826 828 819 814 815 824 826 828 836 826 830 819 825 830 833 836 841 843 845 846 847 849 849 849 850 851 852 851 851 850 849 846 844 841 838 836 833 830 827 826 824 822 819 818
824 833 834 821 818 821 822 820 827 822 823 817 822 829 834 834 837 840 842 842 843 845 845 846 848 849 849 849 849 848 846 844 841 839 836 832 830 827 825 823 822 819 818 816
842 848 842 840 818 818 815 814 817 826 812 820 823 823 826 831 833 835 836 837 839 840 841 843 845 846 846 847 846 844 842 841 838 836 833 830 827 824 822 821 820 817 815 815
860 862 855 808 807 808 807 807 811 810 811 813 813 818 822 825 827 831 832 833 835 837 838 841 842 844 844 844 843 841 839 837 835 833 830 827 824 821 819 818 816 815 813 814
859 866 831 802 807 808 807 804 805 806 812 814 820 821 821 819 822 824 826 828 830 832 835 838 840 842 842 841 839 838 835 834 832 829 826 823 821 818 815 813 812 811 812 811
883 861 850 808 798 796 795 815 797 802 809 815 820 836 810 810 814 818 821 824 827 830 834 836 838 839 839 838 837 834 832 830 828 825 823 820 817 815 813 811 809 809 809 809
892 876 838 805 796 796 817 808 796 798 803 813 815 806 805 806 811 816 820 823 826 830 833 835 836 837 837 835 833 831 828 825 822 820 819 817 814 812 809 808 808 808 808 808
872 876 828 799 797 807 795 789 791 796 798 800 801 805 806 808 812 817 820 824 827 830 832 834 835 835 833 832 829 826 823 820 818 816 814 813 811 809 807 806 807 807 807 806
826 818 797 795 790 786 788 788 789 791 790 792 800 801 802 807 810 815 820 823 827 830 832 833 832 831 829 827 825 822 818 815 813 810 809 809 808 807 805 805 806 806 804 804
809 790 792 790 785 784 784 784 783 785 786 788 792 798 805 812 815 818 824 826 827 828 829 829 829 828 826 824 821 817 814 812 809 806 805 805 805 804 804 804 804 803 802 802
808 793 788 784 782 779 779 780 780 781 783 785 790 798 802 810 813 820 821 823 825 826 826 827 826 824 822 819 816 814 811 809 806 804 803 802 802 802 802 802 802 800 800 799
802 779 781 780 773 774 777 776 777 781 784 787 790 798 807 810 815 818 820 822 823 824 824 823 821 820 817 815 813 810 808 806 804 801 800 799 799 800 800 800 799 798 797 796
777 773 776 774 774 773 774 774 776 780 783 788 796 797 805 811 817 819 820 821 821 821 821 819 817 815 813 811 810 807 805 803 801 798 796 795 796 796 797 796 796 795 794 793
772 774 774 773 771 771 772 774 778 784 789 793 798 804 808 814 816 817 817 818 817 817 817 815 813 811 809 807 805 803 801 799 797 795 793 792 792 792 793 793 792 792 791 790
769 770 770 771 773 776 777 780 788 795 795 801 802 807 810 812 813 814 815 814 814 814 812 811 808 806 805 804 802 800 797 795 793 791 790 788 786 788 789 789 789 788 787 787
773 772 774 777 781 783 785 791 792 800 806 805 804 805 807 808 810 811 811 810 810 809 808 806 804 803 801 800 798 795 793 791 789 788 787 785 784 785 785 785 784 784 783 782
773 778 782 786 788 790 793 798 800 802 803 802 803 804 805 806 808 808 807 807 806 805 804 802 800 799 797 795 793 790 789 786 784 783 782 781 781 781 780 779 779 778 778 778
783 784 787 791 795 798 803 802 802 802 803 803 803 803 803 804 805 803 803 802 801 800 798 797 794 794 793 791 789 786 783 781 779 777 776 775 775 774 774 773 773 772 771 772
792 794 796 798 800 802 802 803 803 803 803 801 801 801 803 802 801 800 799 798 796 794 792 791 789 788 787 785 784 781 778 775 773 770 768 768 768 768 767 767 766 765 765 765
799 799 801 802 801 801 801 801 801 801 800 801 801 801 800 798 798 796 794 793 790 788 787 785 784 782 781 779 778 775 772 769 766 763 761 761 761 761 761 760 760 759 758 757
803 802 802 801 801 801 800 801 800 800 799 799 799 798 796 793 792 792 791 788 783 783 781 780 778 776 775 773 770 769 766 763 760 757 755 754 754 754 753 752 751 750 749 749
804 804 804 804 803 802 802 801 801 800 799 797 796 794 793 790 788 786 784 783 777 776 775 774 773 771 769 768 765 762 760 757 754 752 749 748 746 745 744 743 741 740 739 738
806 806 805 805 803 803 801 800 799 798 796 794 792 790 788 786 784 782 778 774 772 770 769 768 767 765 764 761 759 756 754 752 749 747 745 743 742 740 738 736 734 732 730 728
806 806 806 805 804 803 801 799 798 796 795 792 791 788 786 782 777 776 773 770 768 766 763 762 760 759 758 756 754 751 748 746 744 742 740 738 737 735 733 730 728 725 722 720
806 806 805 806 805 806 805 802 799 796 792 789 787 785 783 781 778 770 767 764 761 759 756 755 754 753 752 750 749 747 745 743 740 738 736 734 732 729 726 723 720 717 715 712
810 810 810 810 810 809 807 804 801 798 794 789 786 783 779 775 771 766 762 758 755 752 750 749 748 748 748 747 745 743 741 738 736 734 731 729 726 723 720 717 713 710 706 703
814 814 813 812 811 809 808 805 801 798 795 791 784 780 776 771 766 763 758 754 751 747 744 745 745 745 745 743 742 740 738 736 734 731 729 726 722 719 714 709 704 699 698 695